Location: Bailleul
(50.3375°N, 2.8513°E)
Time: 16:34:59
(UTC+00:00)

Cosmos 2322 - Pass Details

Date: 16 June 2021
Orbit: 839 x 856 km, 71.0° (Epoch: 30 July)

Event Time Altitude Azimuth Distance (km) Brightness Sun altitude
Exits shadow 22:03:03 10° 193° (SSW) 2,482 5.7 -12.6°
Reaches altitude 10° 22:03:08 10° 193° (SSW) 2,449 5.6 -12.6°
Maximum altitude 22:08:40 63° 114° (ESE) 935 3.7 -13.0°
Drops below altitude 10° 22:14:16 10° 34° (NE) 2,470 6.6 -13.3°
Sets 22:16:44 0° 32° (NNE) 3,411 7.4 -13.5°
